sat.trackr.live / text

‹ back to catalog

COSMOS 2490 (RODNIK-S 9)

NORAD 39485 · 2013-076C

PAYLOAD ACTIVE UNKNOWN

§ Identity

Operator
Country
CIS
Launch date
2013-12-25
Launch site
PLMSC
Launch vehicle
Mass (kg)
RCS (m²)
1.67

External: N2YO · Heavens-Above · Gunter

§ Orbital elements

Epoch: 2026-05-25T04:53:49.152768Z

Period
115.86 min
Inclination
82.4828°
Eccentricity
0.0022072
Mean motion
12.42877009 rev/d
Perigee alt
1,477.1 km
Apogee alt
1,511.8 km
Semi-major
7,872.6 km
B*
-1.8942e-4
RAAN
182.4633°
Arg perigee
158.3682°
Mean anomaly
201.8334°
Rev number
56,302

§ Raw data

COSMOS 2490 (RODNIK-S 9)1 39485U 13076C   26145.20404112 -.00000016  00000+0 -18942-3 0  99932 39485  82.4828 182.4633 0022072 158.3682 201.8334 12.42877009563023

JSON: /api/v1/satellites/39485 · /tle

For live sub-satellite position, see the globe view (requires WebGL).

§ Visibility from observer

Set your observer location to see the next 7 days of passes ≥ 10°. The values pass through the URL so the page stays shareable.

No JS? Fill the form by hand. The geolocation button needs JavaScript.

§ Radio — SatNOGS DB

ModeDescriptionDownlinkUplink
FM UHF Unknown 387.175 MHz
FM UHF Unknown 388.687 MHz

2 transmitters · refreshed weekly from db.satnogs.org